This demonstration page uses our WeatherBlox Daily Observations layout. Learn more.

Left ArrowRight Arrow

Hourly Observations for April 20, 2021

Temp ( °F °C ) Dew Point ( °F °C ) Humidity (%) Winds ( mph kmh ) Pressure ( in mb ) Visibility ( mi km ) Precip ( " mm )
12:59 am 00:59 Clear 48 8.9 45 7.2 89 89 Calm 29.98 1015 7 11 0.00 0.00
1:59 am 01:59 Clear with Mist and Fog 46 7.8 44 6.7 93 93 Calm 29.98 1015 5 8 0.00 0.00
2:59 am 02:59 Clear 46 7.8 44 6.7 93 93 SSW 5 7 29.99 1016 7 11 0.00 0.00
3:59 am 03:59 Clear 46 7.8 44 6.7 93 93 Calm 30.00 1016 7 11 0.00 0.00
4:59 am 04:59 Clear with Mist and Fog 46 7.8 43 6.1 89 89 Calm 30.01 1016 5 8 0.00 0.00
5:59 am 05:59 Clear 49 9.4 46 7.8 90 90 SW 5 7 30.02 1017 9 14 0.00 0.00
6:59 am 06:59 Sunny 50 10 47 8.3 89 89 SW 3 6 30.04 1017 7 11 0.00 0.00
7:59 am 07:59 Mostly Sunny 53 11.7 49 9.4 86 86 SW 3 6 30.06 1018 9 14 0.00 0.00
8:59 am 08:59 Mostly Sunny 57 13.9 49 9.4 74 74 SW 6 9 30.06 1018 10 16 0.00 0.00
9:59 am 09:59 Mostly Cloudy 63 17.2 49 9.4 60 60 S 7 11 30.06 1018 10 16 0.00 0.00
10:59 am 10:59 Partly Cloudy 66 18.9 45 7.2 47 47 SW 8 13 30.08 1019 10 16 0.00 0.00
11:59 am 11:59 Mostly Cloudy 69 20.6 48 8.9 47 47 SW 8 13 30.07 1018 10 16 0.00 0.00
12:59 pm 12:59 Mostly Cloudy 71 21.7 46 7.8 41 41 SSW 7 11 30.03 1017 10 16 0.00 0.00
1:59 pm 13:59 Mostly Cloudy 72 22.2 44 6.7 37 37 SSW 8 13 30.01 1016 10 16 0.00 0.00
2:59 pm 14:59 Mostly Cloudy 73 22.8 45 7.2 37 37 SSE 8 13 29.99 1016 10 16 0.00 0.00
3:59 pm 15:59 Mostly Sunny 73 22.8 44 6.7 35 35 S 12 19 29.98 1015 10 16 0.00 0.00
4:59 pm 16:59 Mostly Sunny 73 22.8 42 5.6 33 33 SSW 10 17 29.96 1015 10 16 0.00 0.00
5:59 pm 17:59 Partly Cloudy 72 22.2 44 6.7 37 37 S 15 24 29.96 1015 10 16 0.00 0.00
6:59 pm 18:59 Mostly Sunny 69 20.6 43 6.1 39 39 SSW 14 22 29.96 1015 10 16 0.00 0.00
7:59 pm 19:59 Mostly Clear 67 19.4 41 5 39 39 S 9 15 29.97 1015 10 16 0.00 0.00
8:59 pm 20:59 Mostly Clear 64 17.8 42 5.6 45 45 SSE 8 13 29.98 1015 10 16 0.00 0.00
9:59 pm 21:59 Mostly Clear 62 16.7 42 5.6 48 48 S 9 15 29.98 1015 10 16 0.00 0.00
10:59 pm 22:59 Mostly Clear 61 16.1 41 5 48 48 S 7 11 29.96 1015 10 16 0.00 0.00
11:59 pm 23:59 Mostly Clear 60 15.6 40 4.4 47 47 S 8 13 29.95 1014 10 16 0.00 0.00

Powered by AerisWeather